FENGYUN 1C DEB

Satellite information

Favourite Embed

Satellite Type and Status

DEBRISIN ORBIT

Key statistics

Satellite FENGYUN 1C DEB at a glance.

Uptime

9714

Days in orbit

Revolutions

≈ 14.1

Per day

Orbit

SSO

Sun Synchronous Orbit

Inclination

98.6

Latest

Satellite identification and parameters

Extended collection of information and parameters for FENGYUN 1C DEB.

Object identification

Identified? True

Debris? True

Object name: FENGYUN 1C DEB

International designator: 1999-025DJE

Object number (NORAD): 33741

Object ID (CCSDS): 33741

Country: PEOPLES REPUBLIC OF CHINA (PRC)

Current information (Y/N): Y

RCS size: SMALL

Orbital parameters

Period: 102.142 minutes

Inclination: 98.5648 deg

SMA: 7238.19 km

Apoapsis: 952.36 km

Periapsis: 767.749 km

RAAN: 259.3576 deg

Eccentricy: 0.01275257

Argument of periapsis: 91.2636 deg

Mean anomaly: 270.3148 deg

Mean motion: 14.09800976 rev/day

Mean motion (dot): 0.00005952 rev/day2

B* drag term: 0.0031597361 1/REarth

Two-line elements (TLE)

Creation date: Dec. 12, 2025, 3:16 a.m.

Reference frame: TEME

Reference center: EARTH

Epoch: Dec. 11, 2025, 5:02 p.m. UTC

TLE line 0: 0 FENGYUN 1C DEB

TLE line 1: 1 33741U 99025DJE 25345.71011440 .00005952 00000-0 31597-2 0 9998

TLE line 2: 2 33741 98.5648 259.3576 0127526 91.2636 270.3148 14.09800976568487

Live tracking on map

Real-time ground track for satellite FENGYUN 1C DEB.

In-orbit conjunctions

A list of the most updated potential collisions computed for object FENGYUN 1C DEB.

Target Orbit TCA Probability of collision Miss distance Type
COSMOS 724 LEO 2025-02-25 21:01:33 0.0001357655 109.0 (m) PAYLOAD
METEOR 2-5 DEB LEO 2024-11-12 21:54:47 0.000140112 386.0 (m) DEBRIS
COSMOS 1934 LEO 2024-08-07 06:00:39 0.000115369 472.0 (m) PAYLOAD

Associated space launch

Chinese polar orbiting meteorological satellite

FENGYUN 1C DEB was lifted into orbit during the mission ‘Long March 4B | Feng Yun 1C’, on board a Long March 4B space rocket.

The launch took place on May 10, 1999, 1:33 a.m. from Launch Complex 7.

For more information about the launch, click the button.

Launch to space Long March 4B | Feng Yun 1C
Long March 4B | Feng Yun 1C

Agency: N/A

Status: Launch Successful

Launch date: May 10, 1999, 1:33 a.m. UTC

Rocket: Long March 4B

Launch pad: Launch Complex 7

Location: Taiyuan Satellite Launch Center, People's Republic of China

...

Latest news about this satellite

There are no fresh news available about this satellite. Check back as we update our databases every day.


Newsletter sign-up

Weekly statistics, charts and insights to help you stay on top of the space industry.